RH
29 46 47 46 46 44 39 38 40 43 40 38 38 41 46 49 55 53 55 57 52 54 55 56 52 54 57 58 70 85 87 81 82 69 75 93 89 90 91 93 97 97 100 97 94 97 99 100 98 97 97 92 92 92 90 90 92 94 93 94 94 94 94 94 93 94 96 95 98 97 94 94 92 92 84 78 85 88 87 88 91 93 95 95 95 96 97 97 96 94 94 94 93 94 95 96 97
37 47 45 46 45 44 41 40 43 45 43 42 41 44 48 51 53 50 50 50 52 58 58 54 49 55 58 61 63 73 90 88 82 86 88 80 78 84 82 86 87 88 96 93 88 90 94 98 93 91 95 94 93 93 92 92 92 93 93 93 93 95 95 94 94 93 94 93 95 97 97 96 93 94 92 89 89 87 87 88 90 92 95 97 95 94 97 99 98 97 96 95 97 98 97 98 99
44 48 46 46 42 41 42 42 45 46 44 42 43 48 52 50 47 49 53 54 56 58 57 49 49 58 55 58 58 66 90 83 63 70 80 69 65 72 76 81 77 77 86 88 86 87 88 88 81 74 80 87 88 89 91 93 91 88 91 94 94 94 95 94 96 93 92 92 92 93 94 95 95 95 93 93 93 90 90 91 91 94 95 96 96 96 98 98 97 99 97 94 98 99 98 98 100
47 48 47 44 40 41 43 44 45 45 42 39 43 50 51 48 48 56 62 61 59 56 55 48 55 61 57 65 67 69 81 78 62 56 65 63 59 65 73 76 71 73 79 83 83 84 84 79 72 65 70 75 74 75 78 86 88 84 84 89 90 90 91 93 95 94 91 89 88 90 92 91 91 94 95 94 96 95 93 93 94 96 96 96 98 99 99 98 97 99 98 96 97 97 99 98 99
45 48 47 43 42 43 44 48 47 43 40 38 45 51 49 49 55 60 62 63 59 57 55 49 60 65 60 64 64 64 64 68 66 53 55 58 61 67 71 73 70 72 76 78 78 80 80 75 72 71 78 81 81 79 74 74 79 86 82 81 89 88 85 85 86 87 89 90 87 85 86 87 86 89 94 95 97 96 92 93 95 96 95 95 98 99 98 98 97 99 99 96 93 93 99 99 99
44 47 45 43 44 46 45 47 46 43 43 43 47 51 47 49 57 57 56 61 58 57 56 53 60 63 63 57 50 52 50 58 60 52 56 55 61 68 69 70 68 71 74 75 76 77 77 74 72 72 78 85 92 95 90 79 78 90 85 80 89 85 77 75 73 75 82 89 89 85 82 82 82 81 86 93 97 97 93 93 94 93 93 94 97 97 96 97 96 98 95 90 86 85 93 95 97
46 44 43 43 44 48 48 45 42 44 49 48 47 48 46 48 54 53 53 56 55 54 58 61 55 56 66 59 51 48 44 50 49 49 57 56 61 67 68 67 67 70 71 73 74 75 76 73 71 72 75 79 86 94 98 90 85 91 89 85 88 84 82 80 77 77 79 85 90 86 77 76 78 74 80 90 95 99 96 93 91 88 90 93 95 94 95 97 97 99 96 92 90 88 89 94 98
48 46 47 46 44 49 50 49 47 48 52 50 46 44 46 50 51 51 49 51 54 53 56 60 49 54 68 62 61 54 44 48 46 51 55 55 61 63 66 66 67 69 69 71 72 74 75 73 72 74 77 78 79 85 92 94 93 93 93 93 92 93 95 93 91 89 83 83 89 85 72 70 72 71 82 92 93 97 93 88 89 89 90 92 92 92 95 96 97 99 98 95 93 93 93 95 99
47 45 49 48 45 49 49 50 52 51 50 47 44 45 53 57 54 50 49 53 55 50 47 48 46 56 66 62 62 52 43 48 46 50 52 54 60 61 63 65 67 68 69 70 70 71 72 73 73 74 78 80 79 78 84 91 98 99 99 98 98 99 100 99 99 98 87 80 87 85 71 67 70 78 93 94 89 93 90 86 90 92 88 85 83 86 91 94 99 99 96 92 90 92 92 94 97
43 43 46 45 42 45 44 46 51 50 46 44 41 43 53 59 55 49 49 55 54 49 43 41 48 58 64 62 56 46 44 48 45 48 52 54 58 60 62 64 68 67 69 69 69 70 69 71 72 74 78 81 80 78 80 84 93 97 97 98 100 100 100 100 99 100 89 79 84 82 76 78 83 94 100 92 87 87 83 81 87 89 78 72 72 80 89 91 95 95 95 92 88 87 87 92 97
39 41 44 41 37 37 35 39 49 49 45 41 35 33 42 48 48 47 50 52 47 45 40 40 53 59 62 61 50 43 44 44 45 48 51 54 57 61 61 63 67 68 69 69 70 70 70 71 70 74 78 81 82 80 80 82 87 92 92 94 99 100 100 99 98 98 82 75 84 85 88 94 96 100 99 88 80 72 65 67 76 80 73 70 68 76 90 91 88 86 92 96 91 87 83 86 90
35 41 42 37 33 32 34 40 48 48 41 36 30 29 33 37 42 46 50 48 40 38 36 38 45 48 58 63 49 39 39 41 44 47 50 54 56 59 61 63 66 68 68 69 70 71 73 73 73 76 79 83 84 82 80 81 86 90 91 95 100 100 100 99 100 94 76 78 90 91 95 98 98 97 91 79 66 59 59 63 69 71 69 75 73 73 88 94 88 81 84 88 85 77 71 76 78
35 43 35 33 42 41 42 44 47 48 39 31 28 27 29 32 37 39 38 37 35 34 34 33 32 36 50 59 46 34 35 40 43 46 49 51 55 58 60 62 65 67 68 70 72 75 77 79 81 83 85 86 87 84 79 81 86 89 92 96 100 100 100 100 100 95 84 89 93 91 94 94 89 83 79 70 60 59 62 65 66 66 66 76 77 71 83 93 90 82 77 77 73 63 63 70 66
37 44 33 37 54 49 44 44 44 47 39 28 24 25 27 29 29 26 27 29 30 32 32 32 31 33 41 47 41 33 35 41 44 45 46 48 51 54 57 60 64 68 71 75 77 79 82 84 90 92 93 94 94 90 83 84 87 89 92 96 101 100 100 100 100 99 95 97 95 94 91 84 79 75 73 68 65 66 68 72 70 68 72 83 81 71 83 94 91 87 83 84 77 64 65 66 57
41 43 38 41 52 48 47 46 42 42 34 25 23 23 24 25 24 22 25 27 31 32 30 32 33 33 35 39 38 36 39 42 44 43 44 47 48 50 54 58 62 70 74 78 80 82 84 87 92 95 98 100 100 98 93 90 89 90 91 94 99 100 100 100 100 100 99 99 98 97 91 85 84 79 76 73 76 77 77 80 74 75 86 95 91 83 88 91 89 91 90 89 78 63 61 62 59
42 40 40 39 45 45 45 46 42 38 29 23 22 21 23 26 25 27 28 26 31 33 31 34 35 35 36 38 40 41 43 43 43 41 41 43 43 45 48 52 59 69 75 77 80 82 86 87 88 91 95 97 98 99 97 95 93 91 90 91 96 98 99 100 100 100 99 100 100 98 96 94 92 87 86 86 89 90 89 88 83 88 96 99 98 94 91 88 88 91 90 90 84 71 63 62 66
40 36 37 35 39 39 38 42 38 31 27 24 22 20 23 27 28 28 27 25 31 35 35 37 37 38 39 40 43 43 42 41 39 36 37 37 37 38 41 46 50 58 64 69 77 82 83 85 86 87 88 91 93 96 95 95 95 92 90 88 90 93 96 98 99 99 98 99 100 99 99 98 96 95 96 97 98 99 97 96 95 97 98 98 100 98 96 95 93 92 93 93 88 80 72 69 71
39 35 33 29 33 32 31 35 30 25 25 24 21 20 22 26 28 26 26 28 32 35 36 36 36 38 39 42 43 41 39 36 34 32 33 34 33 33 35 38 39 44 49 56 70 78 80 82 83 84 85 88 90 91 93 93 93 92 91 88 88 88 90 93 95 97 97 96 98 99 100 99 99 98 94 94 95 95 96 97 98 99 99 99 98 98 97 97 97 96 97 95 89 84 81 79 77
41 38 30 26 30 31 31 31 24 22 21 21 20 20 21 23 25 23 26 32 31 32 35 33 33 36 37 39 39 37 35 32 32 30 30 31 30 29 29 32 34 38 42 44 54 67 77 80 80 81 83 86 87 88 89 90 90 90 90 88 87 86 86 87 88 91 93 94 96 97 99 100 100 99 96 95 89 86 94 99 99 99 100 98 96 99 97 95 98 99 97 96 93 89 88 85 80
41 37 28 26 29 29 34 33 23 21 18 17 21 20 23 26 25 22 26 31 31 36 38 34 35 38 36 35 36 34 31 30 31 29 28 28 27 27 27 28 30 34 37 38 43 55 67 74 77 79 81 82 84 86 86 87 87 88 89 88 87 86 85 85 84 85 87 88 90 92 95 97 99 100 100 100 95 91 96 100 100 99 100 100 98 98 95 93 96 97 97 96 95 93 91 88 84
38 34 29 30 32 27 32 35 26 23 19 16 19 20 25 28 27 26 25 25 31 40 41 40 41 40 36 33 33 31 28 28 29 29 28 27 26 26 26 27 28 32 33 34 37 43 51 60 66 70 73 75 77 79 81 83 84 85 86 86 87 87 86 85 84 84 85 84 85 86 88 91 93 96 98 99 100 99 99 100 100 100 100 100 99 97 94 91 93 95 95 95 95 93 92 90 86
35 36 34 35 34 27 29 37 32 24 19 17 18 21 26 29 32 33 28 27 36 42 43 43 41 39 37 34 32 29 28 28 28 29 28 28 28 27 26 26 28 30 31 31 32 31 33 40 46 48 50 52 55 59 62 66 70 74 78 81 83 84 85 85 85 84 85 84 84 84 84 85 86 89 93 95 97 98 99 100 100 100 100 100 100 99 97 96 96 95 95 95 94 92 94 91 85
29 34 35 37 36 28 25 34 34 24 17 18 20 23 27 29 35 38 38 41 45 44 42 41 41 40 37 34 31 29 28 28 29 30 30 30 29 29 28 28 28 30 30 31 30 25 21 23 25 26 27 25 26 29 31 36 40 44 51 59 65 71 75 78 81 83 84 84 83 83 84 85 86 87 89 91 93 94 96 98 99 99 98 99 100 100 100 100 100 99 99 97 94 94 95 91 85
22 25 27 34 37 30 25 28 29 23 19 21 22 24 27 28 33 40 45 47 44 42 43 41 40 39 35 31 29 29 30 30 31 31 31 31 31 31 30 29 29 29 29 30 29 24 18 16 16 15 16 15 14 13 13 15 18 18 20 26 33 41 48 54 62 67 71 76 79 81 84 85 86 87 88 90 91 92 93 95 96 96 95 95 96 97 98 99 100 100 100 99 98 97 95 90 88
19 20 21 27 30 27 24 24 23 22 23 23 24 29 32 31 34 42 48 46 42 41 41 39 37 34 31 30 29 29 30 31 32 32 32 32 31 30 30 30 30 29 29 30 30 26 20 16 13 12 12 13 13 12 11 11 11 10 10 11 13 16 18 22 28 32 38 48 58 66 73 79 82 84 86 88 90 91 92 93 93 94 93 92 92 93 94 96 98 99 100 100 100 99 97 94 92
20 19 20 22 23 24 22 21 21 23 24 22 28 35 36 34 34 43 49 44 41 39 36 36 33 30 30 30 31 30 30 32 31 32 33 33 31 30 32 31 30 31 30 30 31 28 23 17 14 13 12 12 13 12 12 11 10 10 10 9 9 9 9 10 10 12 15 20 27 35 46 58 68 75 79 83 85 87 88 90 91 92 92 92 93 94 93 92 93 96 99 100 100 100 99 97 94
22 21 23 22 23 25 22 21 22 23 23 23 29 34 35 33 32 40 49 43 38 36 34 33 30 29 30 30 32 32 31 33 32 31 32 32 32 32 33 34 32 33 32 32 32 29 23 18 15 13 12 12 12 11 11 11 10 10 10 10 9 9 9 9 9 9 10 11 12 14 20 30 42 54 63 70 76 80 82 85 87 89 90 91 94 97 97 94 92 93 97 99 99 100 100 98 96
23 22 22 22 23 24 23 23 22 22 24 24 26 31 32 31 35 42 47 42 37 34 33 32 29 29 29 30 32 32 32 34 34 32 32 34 35 34 35 37 36 34 34 34 31 25 20 17 15 14 12 12 11 12 11 11 11 10 10 10 10 10 9 9 9 9 9 10 10 10 11 14 20 26 34 44 56 66 73 78 81 84 87 90 93 98 99 99 96 94 94 97 98 98 98 97 96
23 21 19 19 21 22 24 24 23 22 24 23 22 25 29 37 45 47 44 40 36 33 32 30 29 29 29 30 29 31 34 34 34 34 35 37 39 38 36 39 39 36 35 35 29 22 18 15 14 13 12 11 12 12 11 11 11 11 11 10 10 10 10 10 10 9 9 9 9 9 10 10 11 12 15 20 28 39 51 63 72 77 82 86 90 93 96 98 99 97 95 95 97 99 98 96 95
23 22 19 18 18 21 25 24 23 23 24 24 21 21 29 44 50 46 42 38 35 32 30 28 28 29 29 30 28 29 34 34 34 38 40 39 40 41 39 39 41 39 38 34 28 22 18 15 14 14 13 12 12 12 12 11 11 11 11 11 11 11 10 10 10 10 9 9 9 9 9 9 9 9 10 12 14 18 26 37 51 64 73 80 84 87 90 93 95 97 98 96 96 97 98 99 98
22 25 24 20 15 20 27 25 22 23 25 25 24 22 30 45 49 45 43 37 34 32 29 28 28 29 29 30 28 28 32 35 36 38 41 42 42 42 42 42 42 41 39 34 28 24 19 16 15 15 14 13 12 12 12 12 11 11 11 11 11 11 11 10 10 10 10 10 10 9 9 9 9 9 9 10 11 13 16 21 30 42 54 66 76 80 83 86 89 92 95 97 97 97 97 98 98
23 21 21 23 17 21 28 26 25 24 24 24 25 25 30 42 46 44 43 39 35 32 30 29 28 29 29 29 28 26 29 35 37 38 41 43 44 45 45 45 43 40 38 34 30 26 22 18 16 16 15 14 13 13 13 12 12 11 11 11 11 11 11 11 11 10 10 10 10 10 9 10 9 9 9 9 10 12 15 18 21 26 33 46 59 69 75 79 82 85 89 93 96 98 98 98 98
26 19 15 21 20 22 27 26 26 24 23 25 26 27 32 40 44 44 43 41 36 32 31 30 29 30 29 28 28 27 28 31 33 36 40 43 44 46 46 46 44 39 35 32 30 29 26 22 20 19 17 15 15 14 14 13 13 12 11 11 11 11 11 11 11 11 11 11 10 10 10 10 9 9 9 9 10 11 13 15 18 20 24 33 44 55 65 71 74 78 81 85 90 94 97 99 99
23 23 20 25 26 25 27 26 27 23 23 28 26 28 38 43 43 45 45 42 37 33 32 30 29 30 30 29 28 26 27 28 30 34 40 43 45 46 46 46 43 38 35 32 30 30 29 27 25 24 22 20 17 16 15 15 15 14 13 12 11 11 11 11 12 11 12 12 12 11 10 10 10 10 9 9 10 11 12 13 15 17 21 33 47 56 63 67 69 72 76 77 82 89 96 99 100
19 22 21 26 30 29 27 28 31 29 28 30 27 30 44 48 45 46 46 43 38 34 32 30 29 29 30 29 27 27 27 27 30 35 41 44 46 48 46 44 41 38 36 33 32 31 32 31 30 28 27 25 23 21 20 20 22 22 20 19 17 15 12 11 11 12 12 12 12 12 12 12 11 10 10 9 9 10 11 13 14 15 18 30 46 56 60 64 63 66 71 73 75 81 89 94 93
23 26 24 23 27 27 29 31 36 37 31 32 33 33 43 50 48 48 46 44 39 36 35 33 31 29 29 29 27 28 27 26 32 39 43 45 47 48 47 44 42 39 36 35 35 34 33 34 33 32 30 29 30 29 28 28 29 29 28 26 24 23 19 15 13 12 12 12 12 12 12 13 12 12 11 10 9 10 10 11 12 13 16 22 35 46 51 57 60 61 66 72 77 78 84 89 85
28 29 28 26 26 26 30 33 38 42 35 37 42 40 44 50 49 48 46 44 42 38 37 35 33 29 28 28 28 29 27 28 36 42 43 45 47 48 48 46 44 42 38 38 39 37 34 33 34 34 32 32 33 32 32 31 29 28 29 28 26 26 23 21 20 16 13 13 12 13 13 13 13 13 13 12 11 11 10 11 11 12 14 18 28 38 40 46 55 60 64 71 79 82 85 90 85
30 28 26 27 26 25 31 33 34 38 36 39 44 42 48 52 49 48 46 44 42 38 36 34 32 30 28 29 30 29 29 31 36 37 38 42 45 48 48 47 44 41 39 38 38 36 34 34 35 35 34 34 34 33 34 34 30 27 27 27 27 28 26 24 23 19 15 15 14 14 15 14 15 15 15 15 14 13 12 12 12 13 15 16 24 34 35 39 49 58 66 70 75 81 85 91 91
29 26 24 23 26 27 34 37 34 33 33 37 42 41 48 51 47 48 46 43 41 38 37 35 32 31 28 28 30 30 29 30 30 30 32 35 40 46 46 44 42 40 40 40 38 37 37 38 37 36 36 36 36 36 36 37 35 31 29 26 24 27 27 22 20 19 18 19 18 17 17 18 18 18 18 18 17 17 16 15 16 16 16 17 26 36 37 38 44 54 64 68 71 75 79 87 92
27 25 21 21 28 29 31 35 36 36 34 37 41 41 47 51 48 49 45 43 46 44 42 40 38 33 28 28 30 30 29 27 27 26 28 31 34 39 41 42 43 43 42 41 40 39 39 40 39 37 38 38 38 39 39 39 39 38 37 33 29 29 31 28 26 28 27 25 25 22 21 20 21 22 22 22 21 21 20 19 20 21 21 22 30 40 42 41 45 51 58 63 67 69 72 82 87
28 27 21 22 28 29 29 32 34 37 37 39 39 36 40 47 48 49 47 48 50 48 46 45 44 39 35 36 35 33 31 28 28 25 25 29 31 33 37 41 44 43 42 42 42 41 40 41 41 40 42 42 42 42 42 43 44 43 41 40 38 36 36 34 32 33 33 31 31 28 24 22 23 24 25 25 25 24 24 23 23 25 28 29 33 40 45 45 45 47 52 58 64 68 71 76 77
26 30 28 27 27 28 31 32 29 27 30 38 37 28 31 41 46 47 49 51 49 48 49 47 44 42 40 40 36 33 33 31 30 28 27 31 32 34 36 39 42 41 40 42 43 43 45 47 48 48 49 49 49 48 48 49 48 45 44 43 41 39 37 34 31 31 32 33 32 29 27 25 24 25 27 28 28 28 28 27 27 30 34 36 37 40 44 45 43 42 46 54 59 65 70 68 67
18 29 34 33 30 28 30 29 25 20 23 34 34 25 27 37 43 46 48 50 48 47 50 47 43 42 41 38 34 31 31 30 32 33 33 34 35 36 35 35 39 39 42 48 49 50 53 55 55 56 55 54 55 55 54 55 52 49 49 48 46 44 41 36 33 32 33 33 33 30 31 31 27 27 30 31 31 31 32 32 32 35 41 43 43 44 45 45 45 43 45 52 55 58 63 63 62
20 33 37 35 32 29 29 26 23 23 26 30 29 24 26 34 42 49 51 47 44 43 44 45 43 41 41 39 36 33 30 30 33 34 34 35 36 37 37 36 40 46 52 56 55 54 54 53 53 54 54 55 56 55 54 56 56 54 54 53 50 48 46 42 38 36 36 36 36 34 35 35 32 29 30 33 34 34 36 38 38 40 46 48 47 48 48 46 47 46 46 50 50 51 56 58 55
32 42 41 37 34 32 32 27 24 27 27 26 27 24 26 33 39 46 48 39 33 35 37 40 43 42 41 41 39 37 35 37 39 37 36 37 38 40 43 45 51 57 56 52 49 47 45 43 41 42 46 50 50 46 44 47 52 55 55 54 53 51 49 47 45 43 42 41 39 37 36 37 37 33 30 32 35 37 40 42 43 44 47 49 49 49 50 50 49 50 50 51 49 47 52 55 52
40 43 38 35 35 33 30 29 29 29 27 29 30 24 21 29 34 36 36 29 24 26 31 38 43 44 44 45 44 43 42 44 46 46 45 44 44 47 53 56 59 58 53 47 46 45 44 44 42 42 45 46 44 43 42 42 45 51 54 53 53 52 51 50 49 47 45 42 40 38 37 37 38 38 35 33 34 37 41 44 45 46 47 49 50 50 51 50 50 51 52 52 50 46 48 53 56
40 35 30 28 28 29 26 26 29 25 26 31 29 24 19 20 30 32 29 30 29 26 27 33 39 43 46 49 49 48 47 47 48 50 50 49 51 55 58 59 56 53 50 48 47 46 46 48 48 47 47 47 46 46 47 48 50 53 54 54 54 53 52 50 49 47 45 43 40 38 37 37 37 39 40 38 37 38 41 45 47 47 49 49 49 49 49 48 49 50 49 48 48 48 49 51 54
36 27 24 22 19 23 21 20 23 20 24 31 27 26 20 14 25 31 30 36 40 36 34 35 39 42 48 53 53 53 51 50 50 51 51 51 53 57 57 54 52 49 48 47 48 48 48 48 48 47 46 46 47 47 49 51 52 54 55 55 55 54 55 54 51 49 48 46 43 40 38 37 37 38 40 40 40 40 42 46 47 48 49 50 50 49 50 51 50 48 45 44 45 46 48 48 48
29 21 22 17 13 19 19 18 22 18 22 30 27 23 19 19 29 32 32 40 45 47 46 45 47 46 48 54 55 55 54 53 53 53 54 55 55 55 52 50 49 48 47 47 47 48 47 47 46 46 46 46 47 48 49 48 47 49 51 51 52 54 56 57 56 54 51 49 46 44 41 39 38 38 39 40 40 41 43 46 47 46 46 49 51 52 52 53 51 47 45 44 44 44 46 47 46
22 19 18 14 11 17 20 22 25 21 20 26 26 21 19 25 34 36 39 45 47 49 50 50 52 50 51 55 56 56 55 55 56 55 54 54 53 52 50 48 49 48 47 46 47 47 48 47 47 47 47 48 49 49 49 48 46 46 47 47 48 51 54 56 57 56 55 55 52 49 47 44 42 41 41 41 40 41 43 45 46 46 46 50 53 53 54 54 52 49 46 45 45 44 45 46 44
25 24 18 17 17 15 18 20 22 24 22 22 25 23 19 26 37 41 44 46 46 46 48 50 53 53 55 56 55 55 54 52 52 51 49 49 49 49 49 49 49 48 47 46 47 48 49 49 49 49 50 51 52 52 50 48 47 47 46 46 49 54 57 57 57 56 57 57 56 55 53 51 50 48 47 47 46 44 45 46 47 48 48 50 52 53 53 53 52 50 47 46 46 46 45 45 43
26 27 20 23 25 22 27 31 31 32 26 23 27 24 21 30 40 45 45 45 45 45 47 50 52 54 54 52 50 49 47 46 45 44 44 46 49 49 48 49 48 47 47 47 48 50 51 51 51 51 51 52 51 51 48 46 46 45 45 49 55 59 60 58 56 57 58 58 58 58 57 56 56 55 55 56 54 51 50 48 48 49 49 49 51 52 52 51 51 50 48 46 47 47 46 45 43
20 23 25 29 28 25 30 34 37 37 25 20 25 23 23 28 36 43 45 44 44 43 44 45 47 47 45 44 44 43 42 42 41 41 41 45 47 48 48 48 47 47 47 48 49 53 54 52 51 51 50 50 49 47 45 44 44 45 50 59 64 63 62 61 62 64 66 66 66 64 62 61 61 62 62 62 62 61 58 54 50 48 49 50 50 51 52 52 51 51 49 48 47 47 46 46 44
17 18 25 28 25 21 20 21 29 33 23 17 23 27 26 22 29 43 46 42 40 39 38 37 39 38 36 39 40 39 40 39 39 39 41 45 47 47 48 48 48 48 49 50 52 54 54 51 51 52 50 49 47 44 44 45 47 54 62 66 66 64 64 65 68 70 72 73 74 73 73 72 72 73 73 73 73 71 67 60 54 50 49 50 50 51 52 53 53 51 50 49 49 48 48 48 46
21 19 20 20 20 19 17 16 21 24 21 20 26 33 30 20 26 41 42 37 35 35 34 31 31 32 32 35 37 37 39 38 37 37 39 44 46 46 48 48 48 49 49 51 53 53 51 49 51 52 51 48 45 44 46 49 55 63 66 65 65 65 65 66 67 67 67 69 72 74 76 78 80 84 86 87 85 81 75 67 59 54 51 50 51 50 52 53 53 52 51 50 49 49 49 49 47
21 18 18 22 24 23 21 19 18 18 19 23 28 30 25 16 19 29 32 32 31 30 31 28 27 29 30 32 34 35 37 36 36 35 36 42 46 47 48 49 49 49 50 51 52 50 49 49 51 51 48 45 43 46 50 53 58 63 63 64 67 66 63 62 62 62 62 64 67 69 70 74 79 83 87 89 88 86 82 75 67 60 56 54 52 51 52 53 53 52 51 50 50 50 51 50 48
18 13 18 29 31 28 24 25 33 30 18 18 26 25 16 13 17 23 28 30 28 27 27 27 27 27 28 30 32 33 35 35 36 36 37 42 46 47 49 49 49 48 49 51 50 49 49 49 49 47 45 42 43 48 51 52 53 57 63 67 66 62 59 58 57 56 58 60 64 66 66 70 74 77 81 86 87 88 86 81 76 70 64 59 54 52 53 54 53 53 53 53 53 53 52 51 50
22 14 15 24 29 27 18 24 46 49 30 23 27 23 15 15 22 25 28 29 27 27 28 27 27 26 26 29 31 33 35 35 36 37 39 43 46 47 47 47 47 47 49 51 50 48 49 48 47 44 42 42 44 50 53 53 52 57 65 68 63 59 56 56 56 55 56 60 64 66 67 70 71 71 74 78 81 84 86 85 81 76 72 65 59 58 57 57 57 58 57 57 57 56 55 53 53
Wind_Speed
8 8 6 5 3 3 3 1 2 2 2 4 2 1 3 2 0 5 7 5 4 4 3 4 5 4 6 10 13 13 12 8 5 3 3 6 6 15 24 22 23 21 19 18 18 17 18 18 16 17 16 17 17 17 18 17 17 16 16 16 16 16 16 15 15 15 14 15 16 17 18 19 19 18 18 18 18 18 17 16 15 14 14 14 13 11 11 10 9 10 11 12 12 13 13 13 14
7 7 5 3 1 3 1 1 3 2 4 4 2 1 3 4 4 6 8 5 6 5 4 6 9 10 13 15 12 10 11 9 9 5 5 13 5 14 27 23 23 21 20 20 20 20 19 19 17 17 16 16 16 16 17 17 17 16 16 15 15 15 15 15 16 15 15 16 15 16 18 20 20 19 19 19 18 18 17 16 15 14 14 13 13 12 11 10 9 9 11 12 11 11 12 12 13
6 5 3 2 2 1 1 2 4 3 4 3 3 3 3 6 5 6 6 6 8 7 6 7 9 7 6 10 7 6 7 9 14 7 5 19 10 16 27 22 22 19 20 21 21 22 21 19 17 15 15 16 15 15 16 17 16 16 16 16 16 15 15 15 15 15 15 16 15 16 17 18 20 21 21 21 20 19 17 16 15 14 13 13 13 12 10 10 10 9 10 12 12 10 11 12 12
4 4 1 4 2 2 2 3 3 4 4 2 3 4 3 5 5 7 6 6 6 5 5 6 6 7 4 9 7 7 7 6 12 11 5 15 13 18 23 20 20 18 21 21 21 22 21 20 18 17 16 17 16 16 16 16 17 16 16 16 16 16 16 16 15 15 15 16 16 16 17 17 18 21 23 22 19 19 18 16 13 11 11 12 11 11 10 11 9 6 6 9 9 9 9 10 12
3 4 0 4 2 1 2 2 2 4 2 1 2 5 4 3 6 8 6 4 3 2 3 4 5 5 9 9 5 3 6 4 7 13 6 10 16 18 20 19 18 19 21 21 21 22 20 19 19 19 19 19 18 19 18 17 18 18 18 17 17 18 17 17 17 17 16 16 16 16 17 17 17 18 21 24 20 19 18 15 12 10 10 9 8 8 9 10 8 4 3 4 5 8 7 6 11
2 1 3 1 0 1 2 2 3 3 1 2 3 6 4 4 7 9 8 5 4 3 2 4 7 8 8 7 7 7 6 5 4 11 10 12 18 18 19 19 18 20 22 21 21 21 21 19 19 19 19 20 20 20 20 20 20 20 22 20 19 20 19 18 18 18 18 17 17 16 16 17 17 18 18 23 22 18 16 13 9 8 7 7 7 6 6 7 6 5 3 1 1 5 5 2 4
2 2 2 2 2 1 4 3 3 3 2 3 2 5 4 4 6 9 11 7 7 6 5 6 9 11 7 4 7 10 11 9 5 8 12 14 17 17 18 20 20 22 22 21 21 21 21 19 18 18 18 19 20 20 21 21 21 21 23 22 21 21 20 19 19 19 19 19 18 18 18 18 18 19 17 18 18 14 13 10 6 5 6 6 6 5 5 5 5 4 1 2 1 0 2 1 1
2 2 0 2 2 1 4 2 1 1 2 1 2 1 1 3 7 10 10 6 6 6 6 6 4 7 8 5 5 6 11 14 7 8 13 13 16 16 18 22 22 24 23 22 22 21 20 18 18 18 18 18 19 21 21 22 22 22 22 22 22 22 21 20 20 19 18 18 19 19 20 18 20 20 14 11 13 12 11 10 5 4 5 4 3 4 5 5 4 3 1 3 2 3 1 2 2
1 1 1 3 2 2 3 2 2 1 2 1 0 0 1 3 7 8 8 6 6 8 7 2 2 4 10 10 7 4 9 16 9 8 13 14 16 17 19 24 24 24 24 23 22 21 20 19 18 18 17 18 18 20 21 22 24 24 23 24 24 23 23 22 21 19 18 17 18 19 18 18 19 14 9 14 15 13 12 11 7 5 6 4 3 5 6 5 5 5 0 4 4 5 5 4 4
0 1 1 2 2 3 4 3 2 2 2 1 1 1 2 3 5 4 8 8 5 7 8 7 3 8 11 10 7 5 7 15 13 13 17 16 17 19 20 24 25 24 24 23 23 22 21 19 18 18 17 17 18 19 20 22 24 25 25 26 26 26 26 25 23 20 17 16 15 14 12 12 9 5 12 17 18 15 13 12 7 5 7 7 8 7 6 6 6 4 1 5 5 3 4 6 6
2 1 0 2 3 4 4 3 3 3 2 1 1 1 1 3 4 4 8 9 5 8 7 7 7 10 10 8 5 6 7 16 19 17 18 17 17 21 21 22 25 24 24 24 24 23 22 21 19 18 17 16 17 18 20 22 24 25 26 26 26 27 28 27 24 19 14 12 10 7 4 1 5 11 12 13 14 13 11 11 8 7 7 9 12 9 6 7 8 5 3 5 4 1 1 4 5
3 2 2 4 4 3 2 3 4 4 3 4 4 3 1 2 5 7 10 9 7 10 10 9 3 2 6 8 4 6 12 21 21 16 16 18 18 20 20 22 24 25 24 24 24 23 23 23 21 20 18 17 17 18 19 21 23 25 26 25 26 27 29 26 22 17 11 7 5 4 2 5 8 10 9 8 8 9 9 10 12 10 9 9 11 12 8 8 8 7 7 5 1 4 7 7 6
3 3 4 3 1 1 1 2 3 4 4 4 4 4 1 1 4 5 9 10 7 7 8 10 4 2 5 7 4 5 13 21 20 15 13 16 18 21 21 23 25 25 24 24 24 25 25 25 24 23 21 19 18 19 19 21 23 25 26 25 25 26 28 25 20 16 12 9 7 5 4 5 5 6 7 6 6 7 8 10 12 11 11 10 10 12 10 9 8 7 7 6 6 8 11 10 9
2 2 3 2 0 2 2 1 3 4 4 5 4 4 4 4 6 5 6 8 8 5 4 9 6 1 5 4 3 5 12 19 19 14 11 13 18 21 22 24 25 26 26 26 26 27 28 28 27 26 25 23 22 21 21 21 22 24 25 23 24 25 26 24 22 19 15 12 10 8 7 6 5 4 3 4 3 5 8 10 11 9 9 9 10 11 11 10 9 6 6 5 5 8 12 12 10
1 2 1 2 2 3 3 1 2 4 4 6 3 5 8 7 6 6 8 5 7 6 0 8 9 1 2 2 3 6 12 18 17 13 10 11 16 19 22 23 25 27 27 28 28 29 30 30 30 28 27 25 24 24 23 22 22 24 25 23 22 24 25 24 23 21 18 15 13 11 9 7 5 3 2 0 3 4 5 8 9 9 7 7 9 11 12 11 9 7 6 5 8 11 13 12 10
1 2 1 2 2 3 3 2 2 4 3 6 4 5 9 9 7 6 8 4 8 8 4 8 11 5 6 6 5 8 12 15 15 11 8 9 11 13 19 22 24 28 29 30 30 31 31 30 29 28 28 26 25 24 23 24 23 24 25 24 21 23 24 22 21 19 18 16 14 11 10 9 8 6 4 3 3 3 4 6 8 9 8 6 8 10 11 11 10 8 7 8 12 14 12 11 10
1 3 2 3 3 2 4 5 4 2 5 8 6 2 7 8 7 7 7 10 12 11 11 10 11 11 10 7 6 8 10 12 12 10 9 10 11 11 16 21 22 24 27 29 31 31 30 30 29 28 28 27 27 25 25 26 26 25 26 27 24 23 23 22 20 19 18 16 15 13 13 12 10 9 6 4 4 4 6 7 7 7 7 8 8 8 9 10 9 8 8 10 14 14 13 11 10
2 3 3 3 2 2 3 5 3 2 6 9 6 1 7 9 6 6 6 12 13 12 12 11 13 13 11 9 7 8 9 11 12 13 14 14 13 13 14 16 18 19 22 26 30 31 30 30 30 29 29 29 29 29 28 28 28 28 29 30 28 27 26 25 23 21 19 17 15 14 16 16 12 10 7 7 6 5 7 9 10 9 9 10 8 7 9 9 7 7 9 12 14 14 12 11 9
2 2 2 2 2 1 0 3 3 2 6 10 5 3 6 6 4 3 3 7 9 10 10 8 11 12 11 11 10 10 11 13 15 16 17 16 14 14 14 14 16 18 21 23 26 30 31 30 29 30 31 31 32 32 31 31 31 31 31 31 30 30 30 30 28 24 21 19 18 17 18 18 16 12 8 8 7 6 8 10 11 11 12 12 10 7 8 9 7 7 11 12 13 13 12 11 10
2 2 4 2 3 2 1 2 3 2 5 11 7 6 8 6 3 0 6 9 8 8 7 5 8 9 10 11 11 12 13 15 16 16 17 16 15 15 15 16 17 18 19 19 23 29 31 31 31 31 32 33 34 34 33 33 33 31 31 30 31 31 31 31 31 29 28 25 22 21 21 20 19 17 13 11 9 8 9 10 12 12 12 12 12 10 10 10 9 9 13 13 12 13 13 13 12
2 2 2 3 3 3 3 1 2 3 3 9 9 9 10 6 6 4 5 6 7 7 6 7 7 8 8 9 11 12 13 15 16 17 17 18 18 17 17 16 16 16 17 20 24 29 32 32 32 32 33 34 34 35 35 36 35 33 33 32 33 32 31 30 28 29 30 29 27 26 24 23 21 20 18 16 14 13 11 11 11 12 11 11 12 12 12 12 11 12 14 14 14 14 14 15 14
2 1 2 4 2 3 4 1 3 3 3 9 9 9 8 5 8 9 4 3 5 5 6 7 7 7 7 8 9 11 13 14 15 17 18 19 19 18 17 16 16 17 19 21 23 27 31 32 32 33 34 34 35 35 35 37 37 36 36 36 35 34 33 32 29 29 29 29 29 28 27 26 25 23 21 19 18 17 15 14 13 12 11 9 9 9 10 11 12 13 15 15 15 15 15 16 15
2 2 2 2 1 2 3 2 3 2 6 8 6 8 8 8 9 11 12 10 6 6 6 7 7 7 7 7 9 10 12 14 15 16 17 18 19 18 17 17 17 17 19 21 23 27 31 32 32 33 34 35 36 36 36 37 38 37 37 37 37 36 35 35 34 33 31 29 28 28 28 28 26 25 23 22 21 19 18 18 16 14 11 10 9 8 9 9 10 12 14 15 16 15 15 16 13
3 2 3 1 1 3 2 3 3 3 6 7 7 9 6 6 7 8 13 11 7 8 8 8 8 7 7 8 9 11 12 14 15 15 15 16 17 17 16 17 17 17 19 20 22 27 30 32 33 33 34 35 36 37 38 38 38 38 38 38 38 37 36 36 35 34 33 32 30 30 30 30 29 27 25 25 23 21 20 19 17 16 13 12 11 9 9 9 9 11 13 14 14 14 14 14 13
2 2 4 2 2 4 4 5 6 9 9 9 11 11 9 9 10 9 9 8 7 7 8 8 8 7 8 9 9 10 11 13 14 14 15 15 16 17 18 17 17 18 19 19 21 24 28 31 33 35 35 35 35 36 37 38 38 38 38 38 38 38 38 37 35 35 35 34 33 32 31 31 32 31 28 27 25 23 22 20 18 17 16 14 13 11 11 11 12 11 11 12 13 13 14 14 14
1 2 4 4 4 4 4 6 7 9 7 7 13 12 10 10 8 9 7 6 7 6 8 7 7 8 7 8 9 10 11 13 13 13 14 14 16 18 18 17 17 18 17 18 19 21 25 29 32 34 35 35 35 36 36 37 38 38 37 37 37 38 38 37 37 37 36 36 35 33 32 31 31 31 31 29 28 26 25 23 21 19 17 16 15 14 13 12 12 13 13 13 13 14 15 15 15
2 3 4 4 5 3 2 4 6 8 4 3 10 11 7 4 1 4 5 5 6 7 8 6 6 8 7 7 8 9 11 12 12 12 14 14 16 17 16 16 16 16 17 18 19 20 23 27 30 32 33 34 35 35 35 36 36 37 36 36 37 38 38 37 37 37 36 35 35 34 33 31 30 29 30 30 29 29 27 26 24 22 20 18 17 16 15 14 12 11 12 14 14 16 17 17 16
2 2 3 4 5 5 3 5 6 5 3 4 13 13 6 3 2 5 7 5 5 7 8 6 7 7 7 7 8 9 10 10 10 12 14 14 13 14 14 14 13 14 16 17 19 21 24 27 29 30 32 33 34 34 34 34 35 35 35 36 36 37 37 37 37 36 36 35 35 34 33 32 31 30 29 29 29 29 29 28 27 25 23 21 19 17 15 14 13 12 11 11 13 15 17 18 18
2 1 2 4 5 4 4 4 5 2 3 8 12 9 3 5 6 8 8 5 6 7 8 7 7 6 6 7 7 8 9 9 10 12 12 12 11 12 12 12 11 12 14 15 19 23 26 27 28 29 30 31 32 32 32 32 33 33 34 34 35 35 35 35 35 35 35 35 35 34 33 32 32 32 31 30 29 28 29 29 29 28 26 23 21 19 17 15 14 13 13 11 11 13 15 17 18
2 1 1 3 4 3 4 3 5 3 4 6 4 4 3 7 7 8 6 6 8 8 8 7 6 6 5 5 6 7 8 9 10 10 10 9 9 10 11 11 11 11 11 14 19 23 25 27 28 28 28 29 30 30 30 30 31 31 31 31 32 33 32 33 33 33 33 34 34 33 34 34 33 32 31 30 29 28 28 27 28 27 26 25 23 21 20 19 17 15 14 13 13 13 13 14 16
2 1 1 3 4 3 5 3 6 5 3 3 3 3 3 7 7 7 6 6 6 8 8 6 6 5 5 5 5 6 7 8 8 8 8 8 8 8 9 10 11 11 12 15 20 22 24 26 26 27 27 27 28 28 28 28 28 28 28 29 29 30 30 30 30 31 31 32 32 32 33 33 32 32 31 30 30 29 27 26 25 25 25 25 24 23 21 20 19 18 17 15 14 13 13 14 15
2 2 3 3 3 3 6 3 1 3 4 3 4 2 4 7 9 8 7 5 4 7 8 6 6 6 5 5 5 6 6 6 7 7 7 7 6 7 7 8 10 12 14 16 19 20 22 25 25 25 26 26 26 26 27 26 26 26 26 27 27 27 28 27 28 28 28 29 30 30 31 31 31 31 30 30 29 28 27 26 25 24 23 23 23 24 23 22 21 19 18 18 17 15 14 13 14
2 3 3 3 4 4 5 4 3 4 8 3 3 1 4 6 9 9 6 4 5 7 7 7 6 6 5 5 4 5 6 6 6 6 5 5 5 5 5 7 10 13 15 17 18 19 20 23 24 24 25 25 25 25 25 25 25 25 25 25 25 25 26 26 25 25 26 26 27 27 28 29 29 30 29 28 27 26 26 26 26 25 23 22 21 21 22 22 22 21 20 19 19 17 15 14 13
3 3 2 1 2 3 4 4 5 4 7 3 1 1 5 7 10 9 5 4 5 6 7 7 6 5 5 4 4 5 5 5 6 5 4 3 4 4 5 7 9 11 14 16 17 18 18 20 22 23 23 23 23 24 23 23 23 23 23 24 24 24 24 24 24 24 24 24 24 24 25 26 27 27 28 28 27 26 25 24 24 24 24 22 19 18 18 19 20 21 21 20 19 16 14 14 15
2 4 3 2 2 2 3 4 3 1 3 4 2 3 6 8 9 7 5 4 5 6 7 7 6 6 5 5 5 5 5 5 5 5 3 2 3 3 4 6 8 10 11 13 15 16 16 17 19 20 21 22 21 21 22 20 18 18 18 19 20 21 22 22 23 22 22 22 22 23 23 23 23 24 25 25 26 25 25 24 23 23 22 21 18 16 16 17 19 20 20 20 20 17 13 14 17
0 2 2 2 3 2 3 4 3 1 4 4 1 3 7 8 7 6 5 5 5 6 6 6 6 6 5 5 5 5 5 5 5 4 3 2 2 2 3 4 6 7 9 10 12 13 14 15 16 18 20 21 20 18 19 18 14 13 13 13 14 16 18 19 20 20 20 20 21 21 22 21 22 22 22 22 23 23 23 24 24 23 22 20 19 18 17 18 19 20 19 19 19 18 15 14 18
1 2 1 1 2 2 4 4 4 2 2 3 3 5 8 6 6 5 5 5 6 7 7 7 6 6 6 6 6 6 5 5 5 4 4 3 2 2 2 2 3 3 6 8 9 11 13 14 15 16 18 20 19 18 18 17 16 14 12 12 12 12 15 15 15 17 18 18 18 19 19 20 20 20 20 20 20 20 21 21 22 22 21 20 18 17 18 18 17 18 18 17 16 17 15 14 19
1 2 2 1 2 2 4 3 3 2 2 3 3 6 7 5 5 5 5 6 7 8 8 8 8 7 6 6 7 6 5 5 6 6 5 5 4 3 2 1 1 2 3 6 7 9 11 13 14 15 16 17 17 18 17 15 16 16 13 12 11 11 13 13 12 14 16 16 16 17 17 17 18 18 18 19 19 18 18 18 19 20 20 19 17 16 17 17 17 17 16 15 14 14 14 14 18
2 1 2 2 2 4 4 2 3 2 2 3 5 5 5 4 4 4 5 6 5 6 7 6 7 8 7 7 7 7 6 6 7 7 7 6 5 4 3 2 1 2 3 4 6 7 9 9 11 13 14 15 16 17 16 15 16 17 15 14 13 11 11 13 14 14 15 14 14 15 15 16 16 16 16 17 17 16 16 16 16 16 17 17 16 15 16 17 17 16 15 14 13 12 12 12 15
1 2 3 2 2 2 2 3 3 3 2 4 7 4 4 4 3 4 6 5 3 4 6 5 5 7 7 7 6 7 8 8 8 8 8 7 6 5 3 2 2 3 3 3 4 6 7 8 10 12 13 14 15 16 17 17 17 17 16 16 16 13 11 12 12 11 11 12 13 13 14 14 14 14 15 15 15 14 14 14 13 13 14 15 14 13 14 16 16 16 15 13 12 12 11 11 13
1 2 3 2 3 2 1 5 5 3 5 5 8 5 4 4 4 4 4 5 5 4 6 7 6 7 6 5 6 7 8 8 8 8 8 7 6 4 4 3 4 4 4 4 5 7 8 9 10 12 13 13 15 17 18 18 16 14 15 15 14 13 12 10 8 7 8 10 10 11 13 14 13 13 13 13 13 13 13 12 12 12 12 13 13 12 12 13 14 15 15 13 12 12 11 11 11
3 2 2 0 3 3 4 7 6 3 3 5 5 4 3 3 3 4 4 5 6 5 7 8 8 8 7 7 8 9 9 9 9 8 7 6 6 5 5 5 5 5 5 6 8 9 10 10 11 13 13 12 15 19 20 19 16 13 14 15 14 15 15 12 10 10 11 10 10 12 13 13 13 12 12 12 11 11 11 11 11 11 11 11 11 10 10 12 13 15 14 13 12 11 11 10 10
3 2 1 1 2 3 5 7 5 3 2 4 4 4 2 4 2 2 3 4 6 6 8 9 8 8 8 8 9 9 10 9 8 8 7 7 7 6 6 6 6 6 6 8 10 11 11 10 11 12 12 12 15 18 20 19 17 14 14 15 15 15 16 15 12 12 12 11 12 13 12 11 12 12 10 10 10 9 9 9 10 10 9 9 9 9 10 10 11 13 14 12 11 11 11 10 10
2 3 2 3 3 4 5 6 5 1 3 4 2 3 1 4 3 1 3 4 4 5 7 8 8 9 10 9 10 10 9 7 6 7 8 8 8 7 7 7 6 6 8 10 9 8 9 9 10 11 12 12 13 16 17 17 15 15 15 16 16 16 17 18 16 13 14 14 13 12 11 11 12 12 10 10 9 8 7 7 8 8 7 8 8 7 8 10 10 11 12 11 11 10 10 10 10
2 3 2 1 1 2 3 3 3 2 2 4 1 3 1 4 4 2 3 3 6 5 4 3 4 6 8 9 9 9 7 5 5 6 7 8 8 7 6 6 7 7 9 9 9 10 11 12 13 14 13 13 14 16 18 17 16 16 16 16 17 18 19 20 18 16 16 16 14 14 12 11 11 12 12 11 10 8 6 6 6 6 6 6 6 6 7 8 9 9 10 10 12 11 9 10 10
4 5 4 4 4 3 2 2 3 3 3 3 2 3 1 4 5 4 3 4 7 7 7 6 3 2 1 3 5 6 5 5 5 6 7 8 7 6 4 5 6 6 7 9 10 11 12 13 14 15 14 14 16 17 18 19 19 17 16 16 18 20 21 21 20 19 18 16 15 15 14 12 11 11 11 12 11 10 8 6 5 4 4 4 5 5 6 7 7 8 8 8 11 11 9 9 10
6 6 5 5 4 3 2 1 2 3 3 3 2 4 3 2 5 4 3 3 5 6 6 6 5 5 4 3 3 3 3 4 4 6 7 7 6 3 3 4 5 5 6 8 10 11 11 12 13 13 13 14 16 17 18 18 18 16 16 17 18 19 20 21 21 21 21 19 19 18 15 14 12 12 11 12 12 12 10 8 6 5 4 4 4 4 4 5 6 7 7 6 8 9 8 10 9
4 3 3 3 2 2 2 1 1 3 2 4 2 3 4 3 3 4 5 4 4 3 4 4 4 4 4 3 3 3 3 3 4 4 5 5 3 1 2 3 4 5 7 8 9 10 10 11 12 13 13 14 15 16 17 17 16 16 16 17 18 19 20 20 21 22 22 22 22 20 18 16 14 13 13 12 13 13 12 9 8 7 5 4 4 4 4 5 5 6 6 6 6 6 7 8 9
2 2 3 3 2 2 3 2 2 3 1 3 2 2 3 1 3 6 7 5 4 2 2 1 2 3 3 4 3 3 3 2 2 2 3 2 1 2 3 4 4 5 6 8 9 9 10 10 12 13 13 14 15 16 16 17 17 17 18 18 19 19 19 19 20 21 22 22 23 22 21 19 16 14 13 14 14 14 13 11 10 9 7 7 6 5 5 5 5 5 5 6 6 6 6 7 8
2 2 2 3 2 2 3 2 1 2 1 3 0 3 2 3 4 6 6 4 3 2 1 1 1 2 3 3 3 2 2 2 1 1 0 1 2 3 3 3 3 4 6 6 7 8 9 10 11 13 14 14 15 16 17 18 18 18 18 19 20 20 20 20 20 20 21 22 22 22 22 21 20 18 16 15 14 15 15 13 12 11 10 10 9 7 7 6 5 5 5 6 6 6 6 7 7
1 1 2 1 0 1 2 1 1 1 1 3 2 2 2 3 4 5 5 4 3 1 1 1 1 1 2 1 0 1 2 2 2 2 2 3 3 3 3 2 3 3 4 5 6 8 9 10 11 13 14 15 15 16 17 19 19 19 19 20 20 19 20 21 21 21 22 23 23 23 23 22 22 21 20 18 15 15 16 15 15 14 13 12 11 9 8 7 6 6 6 6 6 6 6 8 8
2 1 2 0 1 1 1 1 2 1 1 1 3 1 1 2 3 4 4 4 3 2 3 3 3 3 3 2 2 2 3 3 2 2 2 3 3 2 2 2 2 2 3 5 6 7 9 11 11 13 14 15 16 17 19 20 20 20 20 20 19 19 20 21 21 21 22 23 24 24 24 24 23 22 23 22 18 18 19 17 16 16 15 14 13 12 10 8 7 7 7 6 6 6 6 8 9
1 1 0 2 1 1 2 2 2 1 2 1 2 2 3 2 2 5 5 5 5 5 5 5 5 5 4 3 3 2 2 2 2 1 1 2 3 3 2 1 1 2 4 5 6 7 9 11 12 14 15 16 17 19 19 19 20 20 19 17 18 19 20 20 20 21 21 21 22 22 22 23 23 22 22 22 20 21 22 20 18 17 17 16 15 14 13 11 9 8 8 7 7 6 7 8 9
1 1 3 2 1 0 1 0 1 1 3 1 2 1 2 4 3 6 8 8 8 7 6 6 5 4 3 2 3 2 2 2 2 2 2 3 3 3 2 1 0 2 4 5 6 8 9 11 13 15 16 17 18 19 18 18 19 18 17 17 19 19 19 19 19 19 20 19 19 20 20 20 20 21 21 20 20 21 21 21 20 18 17 17 16 15 14 13 11 10 8 8 7 7 7 8 9
3 3 4 1 1 1 1 1 1 1 2 1 1 0 2 5 4 8 12 11 9 7 5 3 3 2 1 3 4 4 4 3 3 2 3 3 4 4 2 1 1 3 4 5 7 8 10 12 13 14 15 16 17 17 17 18 17 16 16 17 18 17 17 17 17 18 19 18 18 18 18 18 18 18 18 18 19 19 18 19 20 19 17 17 17 15 14 13 11 10 9 8 7 7 7 9 9
3 3 2 1 1 1 0 0 1 2 2 2 1 1 3 5 5 10 13 11 8 6 4 2 1 2 3 4 5 5 5 4 3 3 4 4 5 4 2 1 2 4 5 6 7 9 11 12 12 13 15 16 17 16 16 17 16 16 17 17 16 16 17 17 17 18 19 18 18 19 19 19 18 17 17 16 17 18 18 17 18 19 18 17 17 16 14 13 12 10 9 8 7 7 8 9 9
1 2 2 2 1 0 0 1 1 1 2 2 2 2 3 2 3 8 10 9 8 5 3 2 2 3 4 5 6 6 5 5 4 5 6 5 5 4 2 2 4 5 6 6 8 9 10 11 12 13 15 16 16 16 16 17 17 17 16 15 15 16 17 17 18 19 19 19 19 19 19 19 19 18 17 16 17 17 17 17 17 18 18 18 16 14 13 12 11 10 9 9 8 8 9 10 10
1 1 1 2 2 1 2 1 1 1 2 1 1 4 2 3 3 6 8 8 7 6 4 3 3 5 6 7 8 7 6 6 6 6 6 6 6 5 3 4 5 6 6 7 8 9 10 11 12 13 14 16 17 17 17 17 18 17 15 15 16 17 17 18 18 18 18 18 19 19 19 19 19 19 18 17 17 17 17 16 16 17 17 17 15 13 12 11 11 10 9 9 8 8 9 10 10
Wind_Direction
325 320 308 304 303 243 199 236 232 171 253 241 203 170 146 148 95 152 147 145 135 89 66 70 72 58 91 107 103 85 39 36 18 348 105 355 323 25 24 23 17 11 12 15 25 31 23 26 31 26 26 21 19 16 13 12 7 0 354 350 345 340 335 328 320 313 302 294 285 273 263 257 252 253 255 247 244 243 244 248 249 249 251 245 242 245 245 246 245 248 241 235 232 228 224 217 212
321 321 308 298 228 228 176 274 261 186 228 228 182 163 118 153 194 157 142 126 103 98 110 94 87 77 98 111 107 90 45 45 18 12 68 2 339 27 22 27 18 10 14 21 27 26 21 22 29 30 28 25 22 18 18 15 13 7 0 356 349 346 338 331 326 318 309 305 300 291 278 264 254 252 254 249 246 244 243 246 250 251 253 252 249 250 253 256 252 254 247 232 225 226 220 211 204
323 331 301 225 164 236 134 205 255 208 225 229 150 115 130 174 169 127 113 93 95 116 129 113 94 58 122 122 63 71 61 52 25 358 18 16 13 1 12 25 14 9 16 24 28 24 21 20 25 28 27 23 20 18 17 10 8 5 359 354 349 346 338 334 331 324 316 313 312 307 300 287 267 255 251 249 245 241 241 242 246 251 254 257 255 255 259 260 256 262 259 239 223 215 212 208 196
333 350 250 221 188 194 203 213 253 238 232 226 142 132 161 171 131 104 92 89 110 136 138 128 92 18 67 95 45 81 64 40 34 15 358 14 359 341 1 17 9 12 23 26 27 25 22 20 23 23 22 20 18 16 13 7 4 1 354 348 343 339 335 332 329 324 321 319 316 313 310 308 291 266 251 248 245 238 237 237 244 248 251 257 262 263 261 260 264 270 260 251 233 208 203 203 192
331 5 46 234 232 181 226 235 241 242 244 176 136 138 143 112 116 118 108 102 124 150 138 123 100 56 62 57 14 78 15 322 34 23 359 350 349 345 1 14 10 17 26 27 26 27 22 21 24 22 20 19 18 14 10 7 5 360 352 347 341 335 331 326 324 321 320 318 315 314 310 310 309 291 263 245 238 234 230 231 242 245 246 256 266 272 272 269 271 271 236 255 250 216 206 197 191
287 355 66 156 280 359 237 217 215 208 34 20 117 133 130 100 125 129 121 110 90 63 71 84 100 106 78 54 51 56 12 329 355 11 358 341 349 357 8 16 16 20 26 25 25 26 22 21 23 22 21 19 17 15 10 7 7 2 355 351 345 338 334 327 322 317 313 313 309 308 305 305 307 308 286 252 233 221 220 225 236 238 245 259 262 264 278 277 273 293 269 239 258 232 232 217 182
273 225 89 130 128 294 241 224 223 174 72 4 77 125 129 116 140 142 137 131 105 74 63 93 111 108 99 125 92 59 35 18 353 358 356 345 351 2 12 18 22 24 24 24 24 23 21 20 20 22 23 21 18 16 12 7 6 4 358 355 350 344 340 333 325 317 310 307 305 301 296 298 298 303 297 258 227 206 205 210 220 230 242 256 256 254 265 277 277 301 358 127 93 224 248 259 140
301 260 47 228 184 207 248 220 212 148 89 356 357 77 99 147 163 157 151 142 119 94 81 113 125 101 107 135 110 70 34 22 8 355 354 354 1 8 17 23 27 25 24 23 22 21 19 17 18 21 23 24 20 18 15 9 7 4 0 357 354 349 343 336 327 316 306 302 299 296 291 291 294 297 285 233 202 191 190 190 197 217 232 248 253 261 261 269 257 237 136 112 79 51 37 259 257
320 312 228 237 222 197 233 195 179 114 119 137 311 357 53 173 180 168 149 115 103 96 67 19 297 103 112 101 92 96 25 14 13 7 5 6 9 16 23 28 30 26 26 23 22 20 17 15 16 19 22 26 25 22 18 13 11 7 2 359 358 352 346 339 330 317 305 297 294 295 292 290 293 290 239 197 186 180 178 179 179 180 204 234 266 279 268 250 232 234 287 70 70 43 19 345 311
160 343 229 225 237 214 216 196 168 135 124 96 16 56 100 160 177 169 138 113 94 98 56 6 72 111 114 101 89 96 20 8 16 19 19 17 16 28 30 31 33 29 28 26 24 21 17 15 14 17 22 26 29 28 24 20 16 11 5 1 359 355 351 344 334 324 309 301 302 304 302 300 290 217 188 185 180 179 181 185 187 183 203 230 246 261 269 236 216 229 40 69 75 64 31 8 340
201 114 246 230 223 222 221 190 166 135 113 155 118 68 91 157 158 125 118 109 77 88 45 2 84 105 109 98 93 98 34 16 18 13 21 26 24 34 34 32 35 32 31 29 26 24 21 18 15 17 21 26 31 31 29 26 21 16 9 4 1 358 355 349 340 331 319 318 327 335 333 306 169 173 178 177 178 183 186 194 206 214 215 232 237 236 254 234 209 201 139 96 79 65 348 355 332
224 163 197 232 228 235 240 187 168 137 143 167 125 85 78 179 154 126 118 110 90 91 47 8 40 95 119 105 104 97 32 17 12 5 25 35 32 37 38 35 37 36 34 33 30 28 25 22 21 21 23 27 31 33 32 29 25 19 12 8 5 3 1 357 355 354 354 4 20 41 88 147 170 179 173 168 174 178 183 196 210 227 234 242 246 232 237 237 215 195 170 156 160 314 310 307 308
230 180 210 230 258 234 191 186 163 149 164 151 106 73 49 105 99 97 115 100 73 94 45 5 327 299 105 111 108 73 23 9 0 2 24 38 40 42 43 41 40 38 36 36 34 33 30 27 25 25 26 27 30 31 33 32 29 23 17 13 10 10 11 11 19 25 29 39 44 48 85 128 145 162 166 165 167 185 204 218 227 240 238 241 256 241 237 237 225 209 204 229 257 281 286 276 292
222 196 236 213 134 208 192 190 168 191 169 122 93 65 62 52 41 42 94 94 53 50 40 6 329 257 91 111 113 48 5 354 351 358 15 39 47 45 47 44 42 42 41 40 39 37 34 31 29 28 27 28 29 28 32 33 32 29 22 19 16 17 22 27 39 53 61 62 67 82 96 108 107 121 159 180 207 241 238 240 245 243 232 237 251 244 241 229 215 214 224 245 249 258 267 270 291
227 181 239 181 161 196 204 222 181 213 165 117 113 97 87 48 25 46 39 73 68 18 347 26 360 300 64 44 68 12 342 342 346 356 11 37 45 43 45 44 43 44 45 43 41 39 36 34 33 31 30 29 29 27 29 31 34 35 28 25 23 22 29 32 42 59 74 81 91 102 96 75 57 58 64 353 272 281 255 247 247 244 246 248 244 243 241 222 203 204 209 216 235 245 259 276 291
273 193 206 192 193 209 195 177 190 209 151 118 128 123 99 55 25 60 27 61 99 40 39 36 19 51 55 41 31 349 334 339 347 359 12 31 38 38 41 43 43 44 46 44 41 41 38 37 35 33 33 32 31 29 29 30 33 38 35 31 28 26 31 33 37 51 66 76 81 80 72 58 43 38 40 8 317 308 287 264 247 245 257 257 246 245 234 217 207 205 208 219 235 241 247 264 273
264 222 217 212 203 211 182 179 193 157 124 132 144 154 113 87 48 89 69 69 93 67 62 61 53 66 61 52 17 347 343 350 359 16 31 36 38 36 37 38 37 39 41 41 42 42 40 39 39 37 37 36 35 34 33 33 34 39 40 36 33 31 31 33 35 41 51 59 61 58 49 43 36 27 17 341 307 302 305 293 274 262 264 264 254 247 230 220 219 213 211 221 234 241 242 250 257
247 222 218 226 198 189 182 179 187 120 140 146 147 117 115 116 105 129 94 69 88 86 78 83 79 72 63 53 24 10 7 13 24 36 43 41 40 38 36 33 30 30 31 35 40 43 43 41 42 43 43 44 44 42 41 41 40 43 46 43 39 37 35 35 34 33 38 40 39 39 32 29 30 22 4 347 333 316 311 304 294 285 278 273 260 253 244 233 236 225 214 224 235 243 246 248 252
240 204 228 235 154 111 110 166 157 124 140 133 110 75 97 100 103 156 133 87 94 88 86 97 83 64 55 44 30 32 28 33 38 42 48 45 43 42 38 34 29 28 27 27 33 41 47 46 46 47 48 50 49 49 47 47 47 46 47 46 43 42 40 38 36 32 31 27 23 22 20 19 20 19 7 350 342 329 320 312 300 291 287 280 270 270 266 252 251 237 226 234 239 241 244 248 254
213 216 242 190 118 127 136 184 137 82 127 126 112 87 80 64 28 187 129 104 77 70 71 69 61 42 37 35 31 36 39 42 44 47 52 50 49 46 42 37 32 29 26 26 31 40 48 50 50 51 53 53 52 51 50 50 50 49 48 46 44 43 40 39 36 34 33 29 23 20 17 13 13 14 8 359 354 349 336 321 304 293 290 286 277 276 281 273 265 249 241 244 244 243 243 242 246
188 226 274 107 131 154 122 193 111 70 110 122 124 110 92 70 33 35 137 118 75 65 47 40 46 36 34 34 34 38 46 47 46 50 51 50 49 47 45 41 38 33 31 35 36 42 47 51 52 53 54 54 54 51 50 50 50 49 49 47 46 44 42 41 36 33 33 31 28 26 23 18 15 15 11 8 7 4 356 340 323 311 303 296 284 278 285 285 276 261 253 251 249 249 248 244 239
190 185 14 80 160 149 86 55 102 89 125 122 126 116 109 104 51 29 34 78 78 63 45 52 50 45 41 35 40 47 52 52 50 50 49 50 48 46 45 42 41 38 37 38 37 42 49 52 54 54 54 53 54 52 50 49 47 45 45 46 46 44 43 43 40 37 33 29 28 27 27 24 20 20 19 15 12 9 6 0 350 338 325 317 306 294 292 285 274 267 263 257 252 250 249 246 239
239 153 86 98 130 82 66 79 101 135 144 127 120 110 111 114 77 42 52 68 78 66 57 67 59 55 53 48 54 56 56 55 52 51 50 50 47 46 45 42 41 38 39 40 41 46 51 52 54 55 54 53 53 53 50 48 46 44 43 43 43 42 41 41 41 39 37 32 28 25 28 30 27 24 24 24 21 15 11 8 4 356 343 335 329 319 309 287 262 253 253 249 245 248 247 243 241
260 172 132 155 42 46 47 85 102 88 104 107 107 105 90 97 96 65 67 74 80 77 71 73 73 70 67 67 65 62 62 60 58 55 55 54 51 50 49 48 45 44 44 42 45 49 52 54 56 57 56 54 53 52 51 49 47 44 42 41 41 41 40 38 38 36 35 33 31 27 26 28 28 27 26 25 24 21 17 11 8 4 357 347 338 328 319 309 284 256 242 238 240 246 246 245 248
236 173 127 140 91 79 76 88 100 88 94 101 90 81 67 84 101 83 73 80 83 85 86 87 88 84 77 73 69 68 68 65 64 61 59 58 57 56 54 51 47 47 44 42 46 50 53 57 59 60 59 57 54 53 52 50 48 46 43 41 39 39 38 37 35 33 32 30 29 27 24 22 22 23 25 25 22 22 20 15 11 10 6 357 347 336 323 319 314 296 268 247 244 247 247 250 255
128 126 124 130 105 89 94 95 96 99 109 102 85 83 90 97 93 78 76 89 95 100 96 94 97 89 82 77 71 72 69 65 64 62 63 61 58 56 52 50 48 46 44 44 46 48 52 57 59 60 59 58 55 54 53 51 50 48 45 43 41 40 38 36 34 32 31 28 27 26 25 22 19 17 17 19 19 19 17 15 14 12 10 5 359 350 334 322 320 318 303 278 258 251 249 250 252
79 110 104 96 93 77 103 109 109 110 95 89 105 106 107 112 22 82 103 108 109 110 97 94 100 90 84 83 76 70 68 62 61 64 65 61 56 53 49 47 46 45 45 46 46 48 54 57 58 58 58 58 56 55 54 52 51 49 47 44 42 41 39 37 34 32 30 28 26 24 23 21 20 17 14 12 12 13 13 12 12 11 10 8 6 1 347 329 317 317 318 308 288 269 258 253 250
72 130 122 100 100 93 90 125 146 132 78 104 118 114 104 77 42 98 119 129 124 114 103 99 96 91 85 82 76 70 67 61 61 64 61 57 53 50 48 44 42 45 45 45 48 53 57 58 58 58 57 57 56 54 53 52 51 48 47 44 41 40 38 36 34 32 30 28 25 23 21 19 17 16 14 11 8 7 6 6 8 9 9 6 6 4 357 342 326 313 310 313 306 293 280 269 260
89 187 187 138 136 118 77 113 161 165 149 143 126 128 118 68 80 109 120 133 132 120 112 105 95 94 90 81 79 74 69 65 65 64 60 59 56 54 53 45 43 48 47 47 52 56 58 59 58 58 57 56 55 54 52 50 49 47 45 43 41 40 38 36 33 31 30 27 24 22 20 18 15 12 10 9 7 5 2 2 2 5 6 4 3 360 357 352 344 329 314 305 302 302 295 286 277
146 168 274 176 187 156 68 99 158 136 144 160 162 195 138 90 112 126 129 147 145 131 117 113 106 100 93 85 87 81 73 72 70 66 64 63 60 58 56 50 49 52 50 51 55 56 57 57 57 56 55 54 54 53 51 49 47 46 44 42 40 39 37 35 33 30 28 26 23 21 18 16 14 11 9 7 5 4 2 1 359 359 360 1 1 357 355 354 352 348 335 318 305 301 297 292 286
153 128 261 210 219 152 81 96 161 143 148 212 273 249 136 118 141 142 147 165 157 137 122 120 115 106 102 94 96 93 80 76 75 73 68 64 64 62 57 53 53 55 55 55 57 57 56 56 55 53 52 51 50 50 49 47 46 44 43 41 39 38 37 34 32 29 27 24 21 19 17 14 12 10 8 6 5 3 3 2 360 357 354 355 357 356 355 354 353 355 350 339 327 316 306 297 290
143 202 202 191 226 146 96 70 214 151 151 224 267 221 120 129 149 151 157 179 170 142 127 124 119 114 116 107 107 106 97 91 87 83 75 69 67 63 59 55 55 59 60 59 58 57 55 55 54 51 50 48 46 46 45 44 42 41 40 39 37 37 36 33 31 28 25 22 19 17 14 12 11 8 7 6 5 3 2 1 0 358 356 354 353 352 352 353 354 355 354 352 346 338 330 317 302
174 235 225 170 190 167 124 78 19 132 143 160 272 208 104 126 148 151 159 183 177 146 131 133 130 128 129 124 123 118 117 114 104 96 85 77 73 65 62 60 61 64 64 62 61 58 56 54 53 50 49 47 44 42 41 40 39 37 36 34 33 33 32 32 30 27 25 22 19 15 12 10 8 6 6 6 6 4 1 359 357 356 358 358 355 352 351 351 352 353 353 355 353 348 344 340 325
183 211 236 167 174 174 155 116 70 125 147 117 329 88 86 118 144 151 161 182 180 158 146 146 145 147 144 139 138 135 133 128 120 113 97 85 81 70 70 70 68 67 66 64 62 59 56 54 51 49 47 45 42 40 38 36 35 33 31 30 29 28 27 26 25 24 23 21 18 14 12 9 6 4 3 3 4 4 2 360 356 354 356 359 359 357 354 352 353 353 352 351 354 355 351 350 341
201 196 206 164 176 183 146 120 80 132 142 110 122 112 102 123 143 153 158 182 190 167 155 155 157 159 156 156 154 148 146 138 133 129 117 109 97 81 77 75 73 69 66 63 60 57 54 50 48 45 43 41 39 37 35 34 31 28 26 24 24 23 22 20 19 18 17 16 14 12 12 10 7 4 2 1 0 360 0 360 358 356 356 357 358 358 357 355 354 353 351 348 350 353 353 350 343
157 179 207 168 172 151 102 89 46 345 127 107 79 109 122 137 147 154 156 180 197 173 161 166 166 169 170 170 165 161 160 148 145 153 161 156 132 109 91 79 74 68 62 58 54 50 47 44 41 38 35 34 33 30 28 28 25 21 20 18 18 18 17 16 15 14 12 10 8 7 8 8 6 5 3 1 359 357 357 356 356 357 357 357 356 357 358 357 356 354 351 348 346 347 349 349 346
110 142 159 169 181 119 102 92 48 325 142 87 49 95 114 131 140 150 159 176 192 181 178 179 177 179 180 179 174 174 171 157 164 185 190 188 183 168 133 94 81 64 53 48 44 41 39 38 35 31 28 27 26 24 21 21 19 15 13 11 9 9 10 12 11 9 8 5 4 3 3 3 2 3 3 2 360 358 357 355 354 355 358 359 359 357 357 357 358 357 354 351 347 345 345 349 351
142 186 171 196 222 104 97 97 51 310 233 107 114 110 102 117 139 147 164 181 192 192 190 188 185 185 183 186 183 181 180 173 187 196 191 194 197 198 197 173 81 53 38 31 32 31 30 30 28 25 22 21 18 17 16 14 12 10 6 2 359 357 1 5 4 2 2 1 0 0 0 360 359 360 360 360 359 359 358 357 355 356 358 0 1 359 358 358 360 2 0 355 350 347 342 346 356
155 198 213 218 174 107 111 115 56 343 238 155 158 129 97 112 138 158 180 190 197 201 203 197 189 190 190 192 191 190 192 191 195 194 191 194 196 204 211 215 268 359 1 5 14 14 15 17 17 16 13 11 9 7 7 4 359 357 354 351 350 348 347 352 354 355 358 357 355 356 357 357 357 357 356 357 358 359 359 360 359 360 360 1 3 2 2 3 3 4 4 358 351 348 343 344 357
194 210 229 201 143 148 162 141 90 35 24 146 161 135 103 129 145 174 194 202 219 217 213 215 209 207 201 196 200 201 202 199 199 198 194 194 195 201 211 225 258 297 311 322 339 346 354 356 357 1 0 360 359 356 355 352 348 346 343 341 341 339 336 341 347 350 352 352 350 351 351 351 352 352 352 354 356 357 359 1 2 4 4 6 7 5 4 7 7 5 5 3 356 352 348 343 347
177 228 237 164 152 205 67 117 128 76 59 124 160 148 119 145 167 177 185 206 230 219 208 217 220 220 216 211 217 217 215 211 205 202 197 198 201 204 221 242 257 273 285 297 311 322 331 335 339 345 345 346 348 347 346 344 341 338 336 333 330 330 329 329 333 332 335 340 341 340 340 342 344 343 344 347 349 352 355 359 3 7 9 11 12 10 7 8 10 10 7 5 3 357 347 339 340
156 192 259 104 158 166 115 133 160 179 132 146 189 198 126 120 169 177 172 202 220 206 207 222 217 212 216 219 222 220 221 222 217 213 206 205 215 227 242 248 258 272 283 295 306 315 321 324 328 333 334 333 335 338 339 338 334 329 329 328 323 321 320 318 316 316 319 322 322 325 328 331 333 333 334 336 340 344 349 354 1 8 12 13 14 14 11 10 11 14 13 7 3 359 350 342 340
170 139 155 137 154 174 172 177 197 227 139 146 212 251 139 121 127 162 190 222 224 208 214 226 217 210 215 218 223 221 219 221 221 222 223 225 232 242 253 259 267 281 299 313 316 320 323 322 323 325 326 326 329 333 335 333 327 322 319 316 310 307 308 308 305 305 306 305 308 313 314 315 320 322 319 321 327 333 341 349 357 7 11 12 14 14 12 13 12 13 16 12 5 1 358 351 342
149 117 151 171 191 209 201 203 208 178 101 136 194 291 164 136 109 134 219 222 208 206 216 221 217 216 219 221 226 227 226 225 222 224 226 232 240 246 258 272 291 317 333 340 343 348 350 347 345 343 340 337 337 339 340 334 325 320 314 307 303 299 298 300 299 295 294 294 295 297 293 292 302 307 305 304 308 317 329 339 349 1 6 7 11 12 11 12 13 13 15 15 10 7 5 359 347
85 119 143 150 191 194 189 198 171 137 160 154 103 326 195 137 115 154 221 177 136 127 131 161 203 218 225 232 236 238 238 233 230 236 236 238 246 252 265 291 326 353 2 11 21 22 18 14 11 7 1 356 351 350 350 344 335 326 317 308 303 301 299 298 295 290 288 286 282 280 277 274 279 288 291 290 291 296 304 317 334 347 353 359 2 2 6 8 11 12 13 14 13 13 9 2 355
110 132 116 105 101 88 118 164 133 148 208 155 87 321 243 146 144 160 189 152 124 113 100 89 87 104 225 259 261 258 250 238 232 236 243 247 252 263 294 327 353 16 27 32 30 23 18 13 10 8 4 359 354 351 348 345 342 334 322 314 308 305 303 300 295 290 286 281 274 271 267 261 259 261 269 275 278 279 281 290 305 320 329 339 346 350 356 360 1 3 7 10 11 13 8 3 360
133 148 124 113 108 88 91 66 120 190 197 140 94 336 316 173 161 155 143 115 108 117 113 91 75 65 42 9 339 311 282 262 246 236 241 246 250 273 341 3 25 40 37 30 23 18 15 10 6 4 0 356 352 349 345 342 340 334 326 320 314 309 306 302 297 292 290 284 277 272 264 258 251 245 248 255 260 265 267 270 274 279 291 305 321 332 336 343 347 350 355 358 3 8 5 1 358
151 174 150 138 123 123 153 103 205 221 184 137 110 346 297 221 156 135 121 92 74 95 106 86 52 36 30 18 4 343 317 288 268 254 246 243 246 308 42 49 52 45 33 26 19 13 9 6 2 359 357 355 350 347 344 341 338 334 329 323 317 312 308 303 298 294 291 288 283 278 270 262 253 246 244 241 244 252 254 251 257 263 263 266 280 294 311 327 332 334 340 343 349 356 358 359 355
201 187 171 192 177 170 197 166 206 236 137 123 112 340 279 204 97 119 124 100 73 67 70 60 13 5 10 8 2 354 336 317 306 291 269 253 286 50 62 62 53 39 28 21 14 9 5 1 358 355 352 350 347 344 342 339 336 332 328 323 318 313 307 302 299 296 293 290 287 283 277 269 262 254 247 243 240 242 243 238 238 242 239 245 263 276 289 307 315 314 319 327 335 338 343 350 347
197 184 192 228 193 190 211 181 225 253 100 117 144 316 246 148 104 116 117 89 74 75 17 312 316 321 332 345 350 358 9 7 10 10 17 95 91 88 78 63 49 32 23 14 7 4 359 354 353 350 346 345 344 341 337 335 331 328 325 321 317 313 309 306 302 300 298 295 292 288 283 277 272 266 258 255 247 238 241 239 234 235 236 243 256 265 271 285 294 294 296 307 321 324 327 335 334
128 245 256 243 175 265 237 212 246 242 91 132 179 273 228 160 116 104 102 87 80 84 111 162 225 251 267 260 318 36 61 67 75 89 95 99 100 100 95 74 54 29 14 6 0 358 353 349 348 345 343 341 339 337 334 331 327 325 323 320 318 317 314 311 308 305 303 301 298 294 291 284 279 273 269 267 257 243 245 244 239 240 240 242 248 252 257 264 267 272 279 286 302 309 314 323 323
130 230 258 333 29 353 93 58 24 39 336 183 182 237 24 81 93 106 111 113 125 155 164 168 182 183 186 162 117 92 92 93 100 104 105 118 124 123 122 98 59 25 4 356 352 351 348 344 344 342 339 337 336 334 331 328 326 323 322 321 322 322 319 316 313 311 309 306 303 299 296 292 287 281 276 272 262 252 253 250 244 244 243 240 242 243 244 244 246 255 265 272 285 294 301 313 315
153 186 175 69 13 35 118 103 65 77 258 196 166 183 118 122 163 154 163 172 169 178 179 174 170 163 154 124 112 119 121 125 138 145 162 165 165 160 147 135 73 3 349 348 347 347 346 343 341 339 336 333 332 330 327 326 324 322 323 325 326 324 322 320 319 318 318 314 310 306 303 300 297 292 286 278 269 263 262 255 246 243 242 239 239 241 242 240 241 247 254 260 272 282 290 301 306
253 162 117 117 205 353 92 160 114 189 254 178 160 221 172 192 180 155 183 193 176 174 176 167 153 137 126 130 153 170 172 191 207 218 217 197 186 177 164 160 30 350 342 345 346 345 343 339 336 332 330 328 327 326 325 325 324 324 325 326 325 325 324 324 325 326 326 324 321 318 314 309 304 299 294 287 279 274 269 260 251 243 239 238 237 236 238 238 239 243 248 253 262 271 282 292 298
24 94 104 127 227 167 137 207 199 233 263 238 175 358 251 226 178 165 191 193 175 170 164 141 121 122 161 180 193 202 207 218 231 246 243 215 197 187 178 202 323 340 340 341 341 338 335 331 328 324 322 322 323 324 324 324 325 325 323 323 323 325 326 326 327 329 329 328 328 326 322 317 311 305 299 292 286 280 272 264 256 248 240 237 235 233 233 233 235 239 244 250 256 263 275 285 292
55 103 110 2 342 337 81 94 303 267 262 269 221 158 225 223 181 175 186 181 169 165 144 115 137 207 213 212 215 218 222 240 258 279 277 239 200 187 191 258 319 327 330 330 328 327 324 320 319 317 318 320 322 323 324 324 323 321 320 321 323 324 325 326 327 328 328 327 327 326 324 321 317 313 307 299 291 285 278 268 260 255 247 240 235 231 228 228 231 236 242 249 253 260 272 281 287
134 175 151 96 83 349 260 112 41 302 261 241 255 254 216 170 165 173 168 163 164 157 142 166 221 233 226 224 230 233 237 252 265 277 277 247 205 194 219 271 307 310 311 312 312 313 312 312 314 316 319 321 322 322 322 321 321 320 319 320 321 322 324 325 326 326 325 325 325 324 322 319 316 314 310 304 297 293 288 276 264 259 253 246 239 232 227 228 232 237 243 248 254 262 271 278 284
296 257 172 141 126 163 213 215 109 16 285 227 251 280 240 132 152 167 155 156 160 157 170 200 233 243 237 231 233 236 241 251 263 275 270 240 211 212 238 272 289 290 290 294 299 302 304 310 314 317 320 322 322 321 319 318 319 319 317 316 318 320 321 323 325 325 325 326 326 324 322 320 316 314 311 306 301 298 296 285 271 262 255 249 240 230 227 230 234 240 246 250 256 264 270 277 282